Weather Service Report


030 
ASUS43 KLMK 190310
RWRKY 
KENTUCKY REGIONAL WEATHER ROUNDUP
NATIONAL WEATHER SERVICE LOUISVILLE KY
1100 PM EDT FRI AUG 18 2017

NOTE "FAIR" INDICATES FEW OR NO CLOUDS BELOW 12,000 FEET
WITH NO SIGNIFICANT WEATHER AND/OR OBSTRUCTIONS TO VISIBILITY.

KYZ001>023-026-027-061>063-070>075-190400-
WESTERN AND SOUTH CENTRAL KENTUCKY
  
CITY           SKY/WX    TMP DP  RH WIND       PRES   REMARKS
PADUCAH        FAIR      74  66  76 CALM      29.96R                  
HENDERSON      FAIR      70  67  90 CALM      29.96S                  
OWENSBORO      FAIR      71  67  87 CALM      29.96S                  
HOPKINSVILLE   FAIR      75  67  76 SW3       29.98S                  
BOWLING GREEN  FAIR      77  67  71 W3        29.98S                  
GLASGOW        FAIR      69  69  99 CALM      29.98S                  
$$

KYZ024-025-028>034-038-045-046-053-190400-
NORTH CENTRAL KENTUCKY
  
CITY           SKY/WX    TMP DP  RH WIND       PRES   REMARKS
LOUISVILLE/SDF FAIR      77  66  68 SW6       29.94S                  
LOUISVILLE/LOU FAIR      75  67  76 SW6       29.95S                  
FORT KNOX      FAIR      69  64  84 CALM      29.95S                  
$$

KYZ035>037-039>044-047>052-055>060-089>105-190400-
NORTHEAST KENTUCKY
  
CITY           SKY/WX    TMP DP  RH WIND       PRES   REMARKS
LEXINGTON      FAIR      71  63  75 SW6       29.98R                  
COVINGTON      FAIR      73  66  78 SW6       29.94R                  
FRANKFORT      FAIR      74  64  71 W5        29.96R                  
$$

KYZ054-064>069-076>088-106>120-190400-
SOUTHEAST KENTUCKY
  
CITY           SKY/WX    TMP DP  RH WIND       PRES   REMARKS
JACKSON        FAIR      70  65  84 CALM      29.99R                  
LONDON         FAIR      68  66  93 CALM      30.00S                  
SOMERSET       FAIR      66  66 100 CALM      30.01S                  
MIDDLESBORO    FAIR      69  66  91 CALM      30.01F                  
MONTICELLO     FAIR      65  65 100 NE10      30.02S                  
$$

  

Return to Home page


Western Regional Climate Center, wrcc@dri.edu